This demonstration page uses our WeatherBlox Daily Observations layout. Learn more.

Left ArrowRight Arrow

39.92423, -83.80882

Hourly Observations for September 25, 2015

Temp ( °F °C ) Dew Point ( °F °C ) Humidity (%) Winds ( mph kmh ) Pressure ( in mb ) Visibility ( mi km ) Precip ( " mm )
12:56 am 00:56 Clear 60 15.5 52 11.1 75 75 ENE 6 9 30.2 1023 10 16.0934 0 0
1:56 am 01:56 Clear 58 14.4 52 11.1 81 81 ENE 6 9 30.19 1023 10 16.0934 0 0
2:56 am 02:56 Clear 57 13.8 52 11.1 84 84 E 7 11 30.19 1022 10 16.0934 0 0
3:56 am 03:56 Clear 55 12.7 51 10.5 87 87 E 8 13 30.17 1022 10 16.0934 0 0
4:56 am 04:56 Clear 55 12.7 51 10.5 87 87 ENE 6 9 30.17 1022 10 16.0934 0 0
5:56 am 05:56 Clear 54 12.2 50 10 87 87 ENE 6 9 30.18 1022 10 16.0934 0 0
6:56 am 06:56 Clear 53 11.6 50 10 90 90 E 6 9 30.19 1022 10 16.0934 0 0
7:56 am 07:56 Sunny 54 12.2 50 10 87 87 E 7 11 30.22 1023 10 16.0934 0 0
8:56 am 08:56 Sunny 59 15 53 11.6 80 80 E 7 11 30.22 1024 10 16.0934 0 0
9:56 am 09:56 Sunny 65 18.3 54 12.2 68 68 E 10 17 30.22 1024 10 16.0934 0 0
10:56 am 10:56 Sunny 69 20.5 53 11.6 57 57 ESE 10 17 30.22 1023 10 16.0934 0 0
11:56 am 11:56 Sunny 73 22.7 51 10.5 46 46 E 9 15 30.22 1023 10 16.0934 0 0
12:56 pm 12:56 Sunny 78 25.5 48 8.8 35 35 E 9 15 30.2 1023 10 16.0934 0 0
1:56 pm 13:56 Sunny 82 27.7 49 9.4 32 32 NE 12 19 30.18 1022 10 16.0934 0 0
2:56 pm 14:56 Sunny 82 27.7 44 6.6 26 26 E 9 15 30.17 1022 10 16.0934 0 0
3:56 pm 15:56 Sunny 78 25.5 47 8.3 34 34 ESE 12 19 30.16 1022 10 16.0934 0 0
4:56 pm 16:56 Sunny 77 25 49 9.4 37 37 NE 6 9 30.16 1021 10 16.0934 0 0
5:56 pm 17:56 Sunny 76 24.4 47 8.3 36 36 E 9 15 30.17 1022 10 16.0934 0 0
6:56 pm 18:56 Sunny 72 22.2 50 10 46 46 ESE 8 13 30.19 1023 10 16.0934 0 0
7:56 pm 19:56 Clear 67 19.4 51 10.5 57 57 ESE 6 9 30.21 1023 10 16.0934 0 0
8:56 pm 20:56 Clear 64 17.7 51 10.5 63 63 ESE 5 7 30.22 1023 10 16.0934 0 0
9:56 pm 21:56 Clear 64 17.7 52 11.1 65 65 E 5 7 30.22 1024 10 16.0934 0 0
10:56 pm 22:56 Clear 62 16.6 52 11.1 70 70 E 3 6 30.23 1024 10 16.0934 0 0
11:56 pm 23:56 Clear 60 15.5 53 11.6 78 78 E 3 6 30.23 1024 10 16.0934 0 0

Powered by AerisWeather